Stündliche Wetter Ceglowko

Heute, 27 Januar, Mittwoch

Zeit Temperatur Niederschläge Wind Luftdruck Luftfeuchtigkeit
00:00 -2°C° 0.2 mm 4 m/S 754 mmHg 93%
01:00 -2°C° 0 mm 4 m/S 754 mmHg 93%
02:00 -3°C° 0 mm 4 m/S 754 mmHg 92%
03:00 -3°C° 0 mm 4 m/S 754 mmHg 92%
04:00 -3°C° 0 mm 4 m/S 754 mmHg 92%
05:00 -3°C° 0 mm 4 m/S 754 mmHg 91%
06:00 -3°C° 0 mm 4 m/S 754 mmHg 90%
07:00 -2°C° 0 mm 4 m/S 754 mmHg 89%
08:00 -2°C° 0 mm 4 m/S 754 mmHg 88%
09:00 -2°C° 0 mm 4 m/S 754 mmHg 88%
10:00 -2°C° 0 mm 4 m/S 755 mmHg 87%
11:00 -1°C° 0 mm 4 m/S 754 mmHg 86%
12:00 -1°C° 0 mm 4 m/S 754 mmHg 85%
13:00 -1°C° 0 mm 4 m/S 754 mmHg 84%
14:00 0°C° 0 mm 3 m/S 754 mmHg 85%
15:00 0°C° 0 mm 3 m/S 754 mmHg 87%
16:00 +1°C° 0 mm 2 m/S 754 mmHg 88%
17:00 +1°C° 0 mm 2 m/S 754 mmHg 90%
18:00 -1°C° 0 mm 2 m/S 754 mmHg 92%
19:00 -1°C° 0 mm 2 m/S 754 mmHg 94%
20:00 -1°C° 0 mm 2 m/S 753 mmHg 93%
21:00 -2°C° 0 mm 2 m/S 753 mmHg 92%
22:00 -2°C° 0 mm 2 m/S 753 mmHg 92%
23:00 -2°C° 0 mm 2 m/S 753 mmHg 91%

Morgen, 28 Januar, Donnerstag

Zeit Temperatur Niederschläge Wind Luftdruck Luftfeuchtigkeit
00:00 -2°C° 0 mm 3 m/S 752 mmHg 90%
01:00 -2°C° 0 mm 3 m/S 752 mmHg 89%
02:00 -2°C° 0 mm 3 m/S 751 mmHg 87%
03:00 -2°C° 0 mm 3 m/S 751 mmHg 85%
04:00 -2°C° 0 mm 3 m/S 750 mmHg 83%
05:00 -2°C° 0.1 mm 4 m/S 750 mmHg 87%
06:00 -2°C° 0.1 mm 4 m/S 749 mmHg 92%
07:00 -2°C° 0.1 mm 4 m/S 748 mmHg 96%
08:00 -1°C° 0.2 mm 4 m/S 748 mmHg 95%
09:00 0°C° 0.2 mm 4 m/S 748 mmHg 95%
10:00 +1°C° 0.2 mm 4 m/S 747 mmHg 95%
11:00 +1°C° 0.1 mm 4 m/S 747 mmHg 94%
12:00 +2°C° 0.1 mm 3 m/S 747 mmHg 93%
13:00 +2°C° 0.1 mm 3 m/S 747 mmHg 92%
14:00 +1°C° 0.2 mm 3 m/S 746 mmHg 92%
15:00 +2°C° 0.2 mm 2 m/S 746 mmHg 92%
16:00 +1°C° 0.2 mm 2 m/S 746 mmHg 93%
17:00 +1°C° 0 mm 2 m/S 746 mmHg 92%
18:00 +1°C° 0 mm 1 m/S 746 mmHg 90%
19:00 +1°C° 0 mm 1 m/S 746 mmHg 89%
20:00 +1°C° 0 mm 1 m/S 746 mmHg 88%
21:00 0°C° 0 mm 1 m/S 746 mmHg 87%
22:00 -2°C° 0 mm 2 m/S 746 mmHg 86%
23:00 -2°C° 0 mm 2 m/S 746 mmHg 86%

übermorgen, 29 Januar, Freitag

Zeit Temperatur Niederschläge Wind Luftdruck Luftfeuchtigkeit
00:00 -2°C° 0 mm 2 m/S 746 mmHg 85%
01:00 -2°C° 0 mm 2 m/S 747 mmHg 85%
02:00 -3°C° 0 mm 2 m/S 747 mmHg 85%
03:00 -3°C° 0 mm 2 m/S 747 mmHg 85%
04:00 -3°C° 0 mm 2 m/S 746 mmHg 85%
05:00 -1°C° 0 mm 1 m/S 746 mmHg 84%
06:00 -1°C° 0 mm 1 m/S 746 mmHg 83%
07:00 -2°C° 0 mm 0 m/S 745 mmHg 83%
08:00 -1°C° 0 mm 1 m/S 745 mmHg 78%
09:00 0°C° 0 mm 1 m/S 745 mmHg 74%
10:00 0°C° 0 mm 1 m/S 745 mmHg 69%
11:00 +1°C° 0 mm 1 m/S 744 mmHg 66%
12:00 -1°C° 0 mm 2 m/S 743 mmHg 63%
13:00 +1°C° 0 mm 2 m/S 742 mmHg 60%
14:00 -1°C° 0.2 mm 3 m/S 742 mmHg 66%
15:00 -1°C° 0.2 mm 3 m/S 741 mmHg 71%
16:00 -2°C° 0.2 mm 3 m/S 741 mmHg 77%
17:00 -2°C° 1 mm 3 m/S 741 mmHg 82%
18:00 -4°C° 1 mm 3 m/S 741 mmHg 88%
19:00 -4°C° 1 mm 3 m/S 741 mmHg 93%
20:00 -3°C° 0.2 mm 2 m/S 742 mmHg 93%
21:00 -3°C° 0.2 mm 2 m/S 742 mmHg 93%
22:00 -2°C° 0.2 mm 1 m/S 743 mmHg 94%
23:00 -3°C° 0 mm 2 m/S 743 mmHg 92%

30 Januar, Samstag

Zeit Temperatur Niederschläge Wind Luftdruck Luftfeuchtigkeit
00:00 -3°C° 0 mm 2 m/S 743 mmHg 91%
01:00 -3°C° 0 mm 2 m/S 744 mmHg 89%
02:00 -4°C° 0 mm 3 m/S 744 mmHg 88%
03:00 -4°C° 0 mm 3 m/S 744 mmHg 87%
04:00 -4°C° 0 mm 3 m/S 744 mmHg 86%
05:00 -4°C° 0 mm 3 m/S 744 mmHg 87%
06:00 -5°C° 0 mm 4 m/S 744 mmHg 87%
07:00 -5°C° 0 mm 4 m/S 744 mmHg 88%
08:00 -5°C° 0 mm 4 m/S 745 mmHg 87%
09:00 -5°C° 0 mm 4 m/S 745 mmHg 86%
10:00 -5°C° 0 mm 5 m/S 745 mmHg 85%
11:00 -5°C° 0 mm 5 m/S 745 mmHg 83%
12:00 -4°C° 0 mm 5 m/S 745 mmHg 81%
13:00 -3°C° 0 mm 4 m/S 746 mmHg 78%
14:00 -3°C° 0 mm 4 m/S 746 mmHg 78%
15:00 -3°C° 0 mm 4 m/S 746 mmHg 78%
16:00 -2°C° 0 mm 3 m/S 746 mmHg 77%
17:00 -4°C° 0 mm 3 m/S 746 mmHg 80%
18:00 -4°C° 0 mm 3 m/S 746 mmHg 82%
19:00 -4°C° 0 mm 2 m/S 747 mmHg 84%
20:00 -5°C° 0 mm 3 m/S 747 mmHg 85%
21:00 -6°C° 0 mm 3 m/S 747 mmHg 87%
22:00 -6°C° 0 mm 3 m/S 747 mmHg 88%
23:00 -6°C° 0 mm 3 m/S 748 mmHg 89%

31 Januar, Sonntag

Zeit Temperatur Niederschläge Wind Luftdruck Luftfeuchtigkeit
00:00 -7°C° 0 mm 3 m/S 748 mmHg 89%
01:00 -7°C° 0 mm 3 m/S 748 mmHg 89%
02:00 -7°C° 0 mm 3 m/S 748 mmHg 90%
03:00 -7°C° 0 mm 3 m/S 748 mmHg 90%
04:00 -7°C° 0 mm 3 m/S 748 mmHg 90%
05:00 -7°C° 0 mm 3 m/S 748 mmHg 91%
06:00 -7°C° 0 mm 3 m/S 749 mmHg 91%
07:00 -8°C° 0 mm 3 m/S 749 mmHg 92%
08:00 -7°C° 0 mm 3 m/S 749 mmHg 90%
09:00 -6°C° 0 mm 3 m/S 749 mmHg 88%
10:00 -6°C° 0 mm 3 m/S 749 mmHg 86%
11:00 -5°C° 0 mm 3 m/S 749 mmHg 84%
12:00 -4°C° 0 mm 3 m/S 749 mmHg 82%
13:00 -2°C° 0 mm 3 m/S 749 mmHg 80%
14:00 -4°C° 0 mm 3 m/S 749 mmHg 82%
15:00 -3°C° 0 mm 2 m/S 749 mmHg 83%
16:00 -3°C° 0 mm 2 m/S 749 mmHg 84%
17:00 -4°C° 0 mm 2 m/S 749 mmHg 85%
18:00 -4°C° 0 mm 2 m/S 749 mmHg 86%
19:00 -5°C° 0 mm 2 m/S 749 mmHg 87%
20:00 -5°C° 0 mm 2 m/S 749 mmHg 86%
21:00 -6°C° 0 mm 2 m/S 749 mmHg 84%
22:00 -6°C° 0 mm 2 m/S 749 mmHg 83%
23:00 -6°C° 0 mm 2 m/S 749 mmHg 81%

1 Februar, Montag

Zeit Temperatur Niederschläge Wind Luftdruck Luftfeuchtigkeit
00:00 -6°C° 0 mm 2 m/S 749 mmHg 80%
01:00 -7°C° 0 mm 2 m/S 749 mmHg 78%
02:00 -6°C° 0 mm 1 m/S 749 mmHg 77%
03:00 -6°C° 0 mm 1 m/S 749 mmHg 76%
04:00 -6°C° 0 mm 1 m/S 749 mmHg 75%
05:00 -6°C° 0 mm 1 m/S 749 mmHg 74%
06:00 -6°C° 0 mm 1 m/S 749 mmHg 73%
07:00 -6°C° 0 mm 1 m/S 749 mmHg 72%
08:00 -7°C° 0 mm 2 m/S 750 mmHg 70%
09:00 -6°C° 0 mm 2 m/S 750 mmHg 68%
10:00 -5°C° 0 mm 2 m/S 750 mmHg 66%
11:00 -4°C° 0 mm 2 m/S 750 mmHg 65%
12:00 -4°C° 0 mm 2 m/S 750 mmHg 64%
13:00 -3°C° 0 mm 2 m/S 750 mmHg 64%
14:00 -3°C° 0 mm 2 m/S 750 mmHg 67%
15:00 -4°C° 0 mm 2 m/S 749 mmHg 70%
16:00 -4°C° 0 mm 2 m/S 749 mmHg 74%
17:00 -4°C° 0 mm 2 m/S 749 mmHg 74%
18:00 -4°C° 0 mm 2 m/S 749 mmHg 75%
19:00 -4°C° 0 mm 2 m/S 749 mmHg 76%
20:00 -4°C° 0 mm 2 m/S 749 mmHg 76%
21:00 -4°C° 0 mm 2 m/S 749 mmHg 76%
22:00 -4°C° 0 mm 2 m/S 749 mmHg 76%
23:00 -3°C° 0.1 mm 2 m/S 749 mmHg 82%
Mehr zeigen

Wir brauchen deine Erlaubnis

Meteoprog und unser Service Anbieter werden persönliche Daten aufbewahren, so wie Cookies, Geräte Bezeichnung oder ähnliche Technologien von deinem Gerät und Prozess, so wie Persönliche Daten Inhalte und Werbungen, genauso wie social Media und den Verkehr zu analysieren.

  • Aufbewahrung und/oder Zugang zu deiner Geräte Informationen.

    Cookies, Geräte Bezeichnung oder andere Informationen, können aufbewahrt oder Zugang zu deinem Gerät erhalten, für den Grund, der oben angegeben wird.

  • Personalisierte Werbung und Inhalte, Messungen, Einblick in das Publikum und Produkt Entwicklung.

    Werbungen und Inhalte können personalisiert werden, basierend auf ein Profil. Mehr Daten können besser personalisierte Werbungen und Inhalte hinzufügen. Werbung und Inhalte können gezeigt und gemessen werden. Einblicke über das Publikum, welche die Werbung gesehen haben und den Inhalt, können abgeleitet werden. So wie Daten können genutzt werden, um es zu verbessern oder die Benutzer Erfahrung zu verbessern das System und die Software.

Wenn du “Ich stimme zu” klickst, erlaubst du uns, die Cookies zu benutzen die Geräte Bezeichnung, den Web oder ähnliche Technologien zu benutzen. Deine Settings, können in deinem Gerät bei deinem Browser geändert werden.

Für den bestimmten Zweck, berechtigten Interessen beruhen darauf, mehr als auf den Inhalt. Du kannst mehr darüber in unseren Privaten und Cookie Politik lesen.